(50794) = 2000 FH24

Discovered at Socorro on 2000-03-29 by LINEAR.

Orbit

Orbit type: Main Belt

Note: WebGL enabled browser required.

epoch2023-09-13.0
epoch JD2460200.5
perihelion date2021-03-18.45585
perihelion JD2459291.95585
argument of perihelion (°)318.14773
ascending node (°)140.17180
inclination (°)14.60843
eccentricity0.0514507
perihelion distance (AU)2.5534811
Tisserand w.r.t. Jupiter3.3
ΔV w.r.t. Earth (km/sec)11.0
semimajor axis (AU)2.6919857
mean anomaly (°)202.74062
mean daily motion (°/day)0.22314890
aphelion distance (AU)2.830
period (years)4.42
P-vector [x]-0.15850855
P-vector [y]0.95956653
P-vector [z]0.23260936
Q-vector [x]-0.97405357
Q-vector [y]-0.19051511
Q-vector [z]0.12216236
absolute magnitude15.18
phase slope0.15
uncertainty0
referenceMPO 776715
observations used980
oppositions20
arc length (days)10007
first opposition used1995
last opposition used2022
residual rms (arc-secs)0.77
perturbers coarse indicatorM-v
perturbers precise indicator003Ek
first observation date used1995-01-31.0
last observation date used2022-06-25.0
computer nameMPCLINUX
JD of orbit computation2456847.815568
perihelion JD uncertainty (days)4.1528E-04
argument of perihelion uncertainty (°)9.7818E-05
ascending node uncertainty (°)2.7749E-05
inclination uncertainty (°)7.4357E-06
eccentricity uncertainty 5.3041E-08
perihelion distance uncertainty (AU)1.4469E-07
Minimum Orbit Intersection Distances (in AU)
for orbit epoch: 2460200.5, reference: E2023-VB5
Mercury2.24438
Venus1.85005
Earth1.58281
Mars0.9286
Jupiter2.2433
Saturn6.54888
Uranus15.825
Neptune27.21

Observations

1019 total observations over interval: 1995 01 31.39815 – 2022 06 25.263260
These data are available for download (format description).

Date (UT) J2000 RA J2000 Dec Magn Location Ref
1995 01 31.39815 09 08 59.05 +13 28 51.9   691 – Steward Observatory, Kitt Peak-Spacewatch MPS 20907
1995 01 31.42062 09 08 57.85 +13 29 05.1 18.5 V 691 – Steward Observatory, Kitt Peak-Spacewatch MPS 20907
1998 12 15.37821 05 44 56.98 +03 51 44.7 19.5   704 – Lincoln Laboratory ETS, New Mexico MPS 20907
1998 12 15.40800 05 44 55.21 +03 51 49.3 19.1   704 – Lincoln Laboratory ETS, New Mexico MPS 20907
1998 12 15.42286 05 44 54.47 +03 51 51.4 19.1   704 – Lincoln Laboratory ETS, New Mexico MPS 20907
1998 12 15.43772 05 44 53.57 +03 51 54.0 19.1   704 – Lincoln Laboratory ETS, New Mexico MPS 20907
2000 03 07.39390 13 49 17.72 +06 27 27.3 19.1   704 – Lincoln Laboratory ETS, New Mexico MPS 14219
2000 03 07.40722 13 49 17.45 +06 27 34.8 19.0   704 – Lincoln Laboratory ETS, New Mexico MPS 14219
2000 03 07.42088 13 49 17.22 +06 27 42.4 18.9   704 – Lincoln Laboratory ETS, New Mexico MPS 14219
2000 03 29.31328 13 38 13.98 +09 59 13.0 19.1   704 – Lincoln Laboratory ETS, New Mexico MPS 12589
2000 03 29.33513 13 38 13.01 +09 59 24.5 18.9   704 – Lincoln Laboratory ETS, New Mexico MPS 12589
2000 03 29.35071 13 38 12.22 +09 59 33.5 19.4   704 – Lincoln Laboratory ETS, New Mexico MPS 12589
2000 03 29.36532 13 38 11.69 +09 59 41.0 19.5   704 – Lincoln Laboratory ETS, New Mexico MPS 12589
2000 03 29.38086 13 38 10.96 +09 59 50.1 19.1   704 – Lincoln Laboratory ETS, New Mexico MPS 12589
2000 04 03.30594 13 34 35.95 +10 43 16.7 18.8   704 – Lincoln Laboratory ETS, New Mexico MPS 12589
2000 04 03.32033 13 34 35.15 +10 43 26.5 19.2   704 – Lincoln Laboratory ETS, New Mexico MPS 12589
2000 04 03.33474 13 34 34.56 +10 43 31.2 19.0   704 – Lincoln Laboratory ETS, New Mexico MPS 12589
2000 04 03.34915 13 34 33.89 +10 43 39.7 19.4   704 – Lincoln Laboratory ETS, New Mexico MPS 12589
2000 04 03.36355 13 34 33.24 +10 43 46.5 19.3   704 – Lincoln Laboratory ETS, New Mexico MPS 12589
2000 04 08.33437 13 30 43.80 +11 23 45.5 18.8   704 – Lincoln Laboratory ETS, New Mexico MPS 12589
2000 04 08.38035 13 30 41.47 +11 24 05.9 18.9   704 – Lincoln Laboratory ETS, New Mexico MPS 12589
2000 04 08.39552 13 30 40.78 +11 24 13.8 18.9   704 – Lincoln Laboratory ETS, New Mexico MPS 12589
2000 04 08.41416 13 30 39.91 +11 24 21.9 19.0   704 – Lincoln Laboratory ETS, New Mexico MPS 12589
2000 04 08.43152 13 30 39.06 +11 24 30.0 19.1   704 – Lincoln Laboratory ETS, New Mexico MPS 12589
2000 04 10.46730 13 29 03.41 +11 39 30.9 18.3   608 – Haleakala-AMOS MPS 12589
2000 04 10.47793 13 29 02.90 +11 39 36.0 18.3   608 – Haleakala-AMOS MPS 12589
2000 04 10.48866 13 29 02.38 +11 39 40.4 18.4   608 – Haleakala-AMOS MPS 12589
2000 04 28.22429 13 15 47.75 +13 09 44.9 18.7 R 699 – Lowell Observatory-LONEOS MPS 14219
2000 04 28.24489 13 15 46.88 +13 09 48.2   699 – Lowell Observatory-LONEOS MPS 14219
2000 04 28.26548 13 15 45.99 +13 09 51.6   699 – Lowell Observatory-LONEOS MPS 14219
2000 04 28.28608 13 15 45.18 +13 09 54.6   699 – Lowell Observatory-LONEOS MPS 14219
2000 05 01.40085 13 13 45.62 +13 17 27.4 19.8   608 – Haleakala-AMOS MPS 14219
2000 05 01.41193 13 13 45.25 +13 17 28.1 19.3   608 – Haleakala-AMOS MPS 14219
2000 05 01.42401 13 13 44.80 +13 17 29.1 19.3   608 – Haleakala-AMOS MPS 14220
2001 06 19.31597 20 04 00.82 -09 00 19.2 20.1   644 – Palomar Mountain/NEAT MPS 31684
2001 06 19.32683 20 04 00.45 -09 00 20.7 20.9   644 – Palomar Mountain/NEAT MPS 31684
2001 06 19.33761 20 04 00.05 -09 00 22.6 20.8   644 – Palomar Mountain/NEAT MPS 31684
2002 09 15.44738 03 00 57.20 -02 12 06.7 19.1 R 699 – Lowell Observatory-LONEOS MPS 61025
2002 09 15.46041 03 00 57.32 -02 12 12.2   699 – Lowell Observatory-LONEOS MPS 61025
2002 09 15.47341 03 00 57.29 -02 12 18.8   699 – Lowell Observatory-LONEOS MPS 61025
2002 09 15.48638 03 00 57.29 -02 12 24.1   699 – Lowell Observatory-LONEOS MPS 61025
2002 10 05.41030 02 56 41.66 -05 00 57.0 18.7   644 – Palomar Mountain/NEAT MPS 62978
2002 10 05.42068 02 56 41.38 -05 01 02.1 18.7   644 – Palomar Mountain/NEAT MPS 62978
2002 10 05.43226 02 56 41.04 -05 01 08.7 18.7   644 – Palomar Mountain/NEAT MPS 62978
2002 10 06.32488 02 56 15.70 -05 08 50.5 18.7   704 – Lincoln Laboratory ETS, New Mexico MPS 62978
2002 10 06.33948 02 56 15.29 -05 08 59.5 18.8   704 – Lincoln Laboratory ETS, New Mexico MPS 62978
2002 10 06.35466 02 56 14.79 -05 09 07.2 18.7   704 – Lincoln Laboratory ETS, New Mexico MPS 62978
2002 10 06.36974 02 56 14.30 -05 09 14.5 19.1   704 – Lincoln Laboratory ETS, New Mexico MPS 62978
2002 10 29.29209 02 40 20.75 -08 00 36.1 18.8   704 – Lincoln Laboratory ETS, New Mexico MPS 65623
2002 10 29.30940 02 40 19.85 -08 00 41.6 18.9   704 – Lincoln Laboratory ETS, New Mexico MPS 65623
2002 10 29.32674 02 40 18.98 -08 00 48.1 18.6   704 – Lincoln Laboratory ETS, New Mexico MPS 65623
2002 11 05.29836 02 34 27.66 -08 34 24.3 18.8   644 – Palomar Mountain/NEAT MPS 65623
2002 11 05.32189 02 34 26.43 -08 34 30.4 18.7   644 – Palomar Mountain/NEAT MPS 65623
2002 11 05.35852 02 34 24.50 -08 34 38.7 18.7   644 – Palomar Mountain/NEAT MPS 65623
2002 12 06.31690 02 14 12.91 -08 29 52.4 20.1   644 – Palomar Mountain/NEAT MPS 69361
2002 12 06.33770 02 14 12.40 -08 29 47.7 19.7   644 – Palomar Mountain/NEAT MPS 69361
2002 12 06.35869 02 14 11.93 -08 29 42.2 20.2   644 – Palomar Mountain/NEAT MPS 69361
2003 11 24.44096 10 19 29.90 +07 43 05.8 20.7 V 291 – LPL/Spacewatch II MPS 92469
2003 11 24.44557 10 19 30.17 +07 43 04.8 21.1 V 291 – LPL/Spacewatch II MPS 92469
2003 11 24.44996 10 19 30.42 +07 43 04.3 20.9 V 291 – LPL/Spacewatch II MPS 92469
2003 12 28.47373 10 42 22.09 +07 46 51.8 19.8 R 699 – Lowell Observatory-LONEOS MPS 96252
2003 12 28.48870 10 42 22.32 +07 46 54.8   699 – Lowell Observatory-LONEOS MPS 96252
2003 12 28.50365 10 42 22.51 +07 46 57.6   699 – Lowell Observatory-LONEOS MPS 96252
2003 12 28.51855 10 42 22.88 +07 46 59.9   699 – Lowell Observatory-LONEOS MPS 96252
2004 01 22.35733 10 42 20.43 +10 09 43.1 18.9   704 – Lincoln Laboratory ETS, New Mexico MPS 97459
2004 01 22.37059 10 42 20.14 +10 09 50.0 19.2   704 – Lincoln Laboratory ETS, New Mexico MPS 97459
2004 01 22.38352 10 42 19.87 +10 09 56.7 19.6   704 – Lincoln Laboratory ETS, New Mexico MPS 97459
2004 01 22.39638 10 42 19.61 +10 10 03.2 19.4   704 – Lincoln Laboratory ETS, New Mexico MPS 97459
2004 01 22.40929 10 42 19.32 +10 10 09.8 19.6   704 – Lincoln Laboratory ETS, New Mexico MPS 97459
2004 01 23.36988 10 42 00.13 +10 18 14.4 18.7 R 699 – Lowell Observatory-LONEOS MPS 97459
2004 01 23.38317 10 41 59.84 +10 18 21.7   699 – Lowell Observatory-LONEOS MPS 97459
2004 01 23.39646 10 41 59.59 +10 18 28.0   699 – Lowell Observatory-LONEOS MPS 97459
2004 01 23.40976 10 41 59.38 +10 18 33.7   699 – Lowell Observatory-LONEOS MPS 97459
2004 01 29.33428 10 39 30.62 +11 11 59.0 18.9   704 – Lincoln Laboratory ETS, New Mexico MPS 98442
2004 01 29.34650 10 39 30.17 +11 12 06.5 19.7   704 – Lincoln Laboratory ETS, New Mexico MPS 98442
2004 01 29.35881 10 39 29.87 +11 12 13.6 19.2   704 – Lincoln Laboratory ETS, New Mexico MPS 98442
2004 01 29.37113 10 39 29.47 +11 12 20.5 18.8   704 – Lincoln Laboratory ETS, New Mexico MPS 98442
2004 01 29.38363 10 39 29.05 +11 12 26.6 19.3   704 – Lincoln Laboratory ETS, New Mexico MPS 98442
2004 02 11.38532 10 31 29.49 +13 25 43.9 18.4 R 699 – Lowell Observatory-LONEOS MPS 99690
2004 02 11.40557 10 31 28.62 +13 25 55.5   699 – Lowell Observatory-LONEOS MPS 99690
2004 02 11.42589 10 31 27.63 +13 26 08.8   699 – Lowell Observatory-LONEOS MPS 99690
2004 02 11.43966 10 31 27.17 +13 26 17.8 18.3   644 – Palomar Mountain/NEAT MPS 99690
2004 02 11.44623 10 31 26.82 +13 26 21.4   699 – Lowell Observatory-LONEOS MPS 99690
2004 02 11.46109 10 31 26.19 +13 26 31.5 18.3   644 – Palomar Mountain/NEAT MPS 99690
2004 02 11.48440 10 31 25.15 +13 26 46.6 18.3   644 – Palomar Mountain/NEAT MPS 99690
2004 02 17.27692 10 27 03.04 +14 29 28.7 18.4   704 – Lincoln Laboratory ETS, New Mexico MPS 99690
2004 02 17.28871 10 27 02.52 +14 29 36.1 18.7   704 – Lincoln Laboratory ETS, New Mexico MPS 99690
2004 02 17.30063 10 27 01.90 +14 29 45.1 19.2   704 – Lincoln Laboratory ETS, New Mexico MPS 99690
2004 02 17.31253 10 27 01.32 +14 29 51.5 18.7   704 – Lincoln Laboratory ETS, New Mexico MPS 99690
